CXM1101 WMKN-WMKK

Flight info

Callsign CXM1101
Flight time 0h 42m
Altitude 26000
Route LASOB1A LASOB Y346 PULIP PULIP3J
Aircraft MD11/H-SDE1E2E3FGHIJ2J3J4J5M1RWXY/LB1D1

Departure

Time 2026-05-04 10:20
Airport Sultan Mahmud Airport (WMKN)

Arrival

Time 2026-05-04 11:02
Airport Kuala Lumpur International Airport (WMKK)
Time Latitude Longitude Altitude Speed Heading
2026-05-04 10:00 5.38024 103.10264 35 ft 0 kts 131°
2026-05-04 10:13 5.38026 103.10262 35 ft 0 kts 131°
2026-05-04 10:13 5.38033 103.10254 35 ft 2 kts 131°
2026-05-04 10:13 5.38044 103.10242 35 ft 2 kts 131°
2026-05-04 10:14 5.38056 103.10231 35 ft 2 kts 171°
2026-05-04 10:14 5.38072 103.10232 34 ft 2 kts 220°
2026-05-04 10:16 5.37313 103.09412 33 ft 40 kts 223°
2026-05-04 10:16 5.37117 103.09228 33 ft 33 kts 222°
2026-05-04 10:16 5.36969 103.09127 34 ft 3 kts 230°
2026-05-04 10:19 5.37030 103.09079 34 ft 0 kts 41°
2026-05-04 10:19 5.37138 103.09209 34 ft 72 kts 47°
2026-05-04 10:19 5.37738 103.09805 44 ft 163 kts 44°
2026-05-04 10:20 5.38609 103.10625 913 ft 171 kts 43°
2026-05-04 10:20 5.39569 103.11495 1869 ft 196 kts 42°
2026-05-04 10:20 5.40591 103.12422 2825 ft 204 kts 43°
2026-05-04 10:20 5.41633 103.13261 4110 ft 183 kts 34°
2026-05-04 10:21 5.42891 103.13832 4603 ft 220 kts 14°
2026-05-04 10:21 5.44448 103.13864 4778 ft 246 kts 349°
2026-05-04 10:21 5.46113 103.13073 4939 ft 271 kts 319°
2026-05-04 10:21 5.47194 103.11518 5793 ft 275 kts 291°
2026-05-04 10:22 5.47682 103.07659 7617 ft 284 kts 272°
2026-05-04 10:22 5.47718 103.05767 8494 ft 290 kts 270°
2026-05-04 10:22 5.47541 103.03626 9491 ft 294 kts 256°
2026-05-04 10:23 5.46704 103.01745 10368 ft 298 kts 233°
2026-05-04 10:23 5.45298 103.00116 10720 ft 322 kts 224°
2026-05-04 10:25 5.32476 102.87118 15177 ft 400 kts 234°
2026-05-04 10:25 5.30899 102.84812 15952 ft 405 kts 235°
2026-05-04 10:25 5.29333 102.82494 16694 ft 410 kts 235°
2026-05-04 10:25 5.27691 102.80074 17439 ft 414 kts 234°
2026-05-04 10:26 5.26052 102.77676 18149 ft 419 kts 234°
2026-05-04 10:26 5.24384 102.75251 18850 ft 423 kts 234°
2026-05-04 10:26 5.22700 102.72812 19543 ft 427 kts 234°
2026-05-04 10:26 5.20989 102.70598 20091 ft 430 kts 225°
2026-05-04 10:27 5.18568 102.68613 20773 ft 431 kts 212°
2026-05-04 10:27 5.15966 102.67103 21374 ft 434 kts 206°
2026-05-04 10:27 5.13247 102.65742 21922 ft 439 kts 205°
2026-05-04 10:27 5.10496 102.64397 22536 ft 442 kts 205°
2026-05-04 10:28 5.07717 102.63021 23127 ft 446 kts 205°
2026-05-04 10:28 5.04934 102.61610 23693 ft 450 kts 206°
2026-05-04 10:28 5.02142 102.60164 24251 ft 454 kts 206°
2026-05-04 10:28 4.99334 102.58689 24729 ft 459 kts 207°
2026-05-04 10:29 4.96491 102.57189 25103 ft 463 kts 207°
2026-05-04 10:29 4.93635 102.55680 25480 ft 465 kts 207°
2026-05-04 10:29 4.90782 102.54180 25838 ft 466 kts 207°
2026-05-04 10:29 4.87891 102.52664 25967 ft 469 kts 207°
2026-05-04 10:30 4.85039 102.51169 25992 ft 454 kts 207°
2026-05-04 10:30 4.82272 102.49720 25998 ft 445 kts 207°
2026-05-04 10:30 4.79522 102.48282 26002 ft 446 kts 206°
2026-05-04 10:30 4.76813 102.46865 26003 ft 445 kts 206°
2026-05-04 10:31 4.74156 102.45475 26003 ft 445 kts 206°
2026-05-04 10:31 4.71317 102.43991 26004 ft 445 kts 206°
2026-05-04 10:32 4.54998 102.35455 26003 ft 445 kts 206°
2026-05-04 10:33 4.52183 102.33982 26000 ft 444 kts 206°
2026-05-04 10:33 4.49439 102.32546 25993 ft 444 kts 206°
2026-05-04 10:33 4.46701 102.31114 25992 ft 444 kts 206°
2026-05-04 10:33 4.43959 102.29679 25993 ft 444 kts 206°
2026-05-04 10:34 4.41255 102.28264 25993 ft 444 kts 206°
2026-05-04 10:34 4.38518 102.26834 25995 ft 444 kts 206°
2026-05-04 10:34 4.35775 102.25401 25993 ft 444 kts 206°
2026-05-04 10:34 4.33033 102.23968 25994 ft 444 kts 206°
2026-05-04 10:35 4.30302 102.22542 25994 ft 444 kts 206°
2026-05-04 10:35 4.27558 102.21109 25993 ft 444 kts 206°
2026-05-04 10:35 4.24818 102.19678 25993 ft 444 kts 206°
2026-05-04 10:35 4.22074 102.18244 25993 ft 444 kts 206°
2026-05-04 10:36 4.19327 102.16809 25996 ft 451 kts 206°
2026-05-04 10:36 4.16516 102.15341 25997 ft 463 kts 206°
2026-05-04 10:36 4.13636 102.13839 25995 ft 466 kts 206°
2026-05-04 10:36 4.10752 102.12333 25338 ft 469 kts 206°
2026-05-04 10:37 4.07878 102.10831 24476 ft 463 kts 206°
2026-05-04 10:37 4.05040 102.09348 23625 ft 457 kts 206°
2026-05-04 10:37 4.02238 102.07884 22783 ft 451 kts 206°
2026-05-04 10:37 3.99523 102.06465 22056 ft 446 kts 206°
2026-05-04 10:39 3.83553 101.97793 21410 ft 437 kts 207°
2026-05-04 10:39 3.80869 101.96347 21597 ft 437 kts 206°
2026-05-04 10:39 3.78175 101.94916 21789 ft 440 kts 206°
2026-05-04 10:40 3.75503 101.93509 21946 ft 441 kts 206°
2026-05-04 10:40 3.72746 101.92063 21993 ft 441 kts 206°
2026-05-04 10:40 3.70077 101.90693 22000 ft 441 kts 203°
2026-05-04 10:40 3.67200 101.89686 21897 ft 439 kts 191°
2026-05-04 10:41 3.64193 101.89280 21716 ft 436 kts 182°
2026-05-04 10:41 3.61166 101.89174 21528 ft 434 kts 179°
2026-05-04 10:41 3.58142 101.89162 21336 ft 433 kts 179°
2026-05-04 10:41 3.55260 101.89152 21159 ft 432 kts 179°
2026-05-04 10:42 3.52222 101.89114 20970 ft 431 kts 180°
2026-05-04 10:42 3.49173 101.89046 20777 ft 430 kts 180°
2026-05-04 10:42 3.46185 101.88960 20591 ft 429 kts 180°
2026-05-04 10:42 3.43200 101.88862 20403 ft 428 kts 180°
2026-05-04 10:43 3.40303 101.88763 20220 ft 427 kts 180°
2026-05-04 10:44 3.19694 101.88042 18553 ft 418 kts 180°
2026-05-04 10:45 3.16858 101.87941 18158 ft 416 kts 180°
2026-05-04 10:45 3.13908 101.87837 17673 ft 413 kts 180°
2026-05-04 10:45 3.11048 101.87737 17164 ft 410 kts 180°
2026-05-04 10:45 3.08197 101.87639 16618 ft 408 kts 180°
2026-05-04 10:46 3.05467 101.87545 16099 ft 405 kts 181°
2026-05-04 10:46 3.02677 101.87447 15564 ft 402 kts 181°
2026-05-04 10:46 2.99892 101.87350 15036 ft 399 kts 181°
2026-05-04 10:46 2.97120 101.87253 14515 ft 397 kts 181°
2026-05-04 10:47 2.94375 101.87156 14007 ft 394 kts 181°
2026-05-04 10:47 2.91728 101.87062 13502 ft 391 kts 181°
2026-05-04 10:47 2.88936 101.86964 12975 ft 388 kts 181°
2026-05-04 10:47 2.86253 101.86959 12460 ft 384 kts 174°
2026-05-04 10:49 2.70833 101.91456 10274 ft 225 kts 162°
2026-05-04 10:49 2.69372 101.91915 10204 ft 217 kts 162°
2026-05-04 10:50 2.68415 101.92215 10148 ft 216 kts 162°
2026-05-04 10:51 2.58398 101.95280 8929 ft 211 kts 168°
2026-05-04 10:52 2.56949 101.95488 8630 ft 211 kts 177°
2026-05-04 10:52 2.55489 101.95464 8331 ft 211 kts 187°
2026-05-04 10:52 2.54076 101.95191 8166 ft 207 kts 197°
2026-05-04 10:54 2.47966 101.88761 7142 ft 180 kts 272°
2026-05-04 10:54 2.48256 101.87605 6831 ft 176 kts 300°
2026-05-04 10:56 2.55823 101.84927 4772 ft 170 kts 329°
2026-05-04 10:56 2.56837 101.84309 4714 ft 172 kts 328°
2026-05-04 10:56 2.57834 101.83647 4595 ft 172 kts 326°
2026-05-04 10:57 2.58828 101.82972 4312 ft 171 kts 326°
2026-05-04 10:57 2.59814 101.82309 4024 ft 170 kts 326°
2026-05-04 10:57 2.60801 101.81648 3782 ft 170 kts 326°
2026-05-04 10:57 2.61768 101.80994 3485 ft 170 kts 326°
2026-05-04 10:58 2.62747 101.80337 3210 ft 169 kts 326°
2026-05-04 10:58 2.63722 101.79680 2927 ft 169 kts 327°
2026-05-04 10:58 2.64681 101.79034 2610 ft 164 kts 326°
2026-05-04 10:58 2.65627 101.78394 2339 ft 165 kts 326°
2026-05-04 10:59 2.66573 101.77756 2069 ft 164 kts 326°
2026-05-04 10:59 2.67518 101.77121 1830 ft 163 kts 326°
2026-05-04 10:59 2.68418 101.76516 1617 ft 163 kts 326°
2026-05-04 10:59 2.69392 101.75864 1379 ft 162 kts 326°
2026-05-04 11:00 2.70336 101.75228 1156 ft 162 kts 326°
2026-05-04 11:01 2.76017 101.71412 82 ft 61 kts 328°
2026-05-04 11:02 2.76349 101.71188 72 ft 54 kts 321°
2026-05-04 11:02 2.76563 101.70933 67 ft 36 kts 292°